Flag for Romania

Past Weather in Iași, Romania — Yesterday and Last 2 Weeks

Now
66 °F

Clear.


Feels Like: 66 °F
Forecast: 86 / 61 °F
Wind: 5 mph from East

Location: Iasi Airport
Current Time: Sep 25, 2020 at 1:47:49 am
Latest Report: Sep 25, 2020 at 1:00 am
Visibility: 10 mi
Pressure29.89 "Hg
Humidity: 83%
Dew Point: 61 °F
Location of IașiLocation

Past Weather in Iași — Graph

°F

Iași Temperature Yesterday

Maximum temperature yesterday: 81 °F (at 4:30 pm)
Minimum temperature yesterday: 57 °F (at 6:00 am)
Average temperature yesterday: 68 °F

High & Low Weather Summary for the Past Weeks

 TemperatureHumidityPressure
High88 °F (Sep 16, 4:00 pm)83% (Sep 11, 7:00 am)30.39 "Hg (Sep 11, 7:00 am)
Low45 °F (Sep 19, 7:00 am)16% (Sep 17, 5:00 pm)29.83 "Hg (Sep 24, 4:30 pm)
Average68 °F45%30.14 "Hg
* Reported Sep 10 12:00 am — Sep 25 12:30 am, Iași. Weather by CustomWeather, © 2020

Note: Actual official high and low records may vary slightly from our data, if they occured in-between our weather recording intervals... More about our weather records

Iași Weather History for the Previous 24 Hours

Scroll right to see more
 ConditionsComfort  
Time TempWeatherWind HumidityBarometerVisibility
12:30 am
Fri, Sep 25
66 °FLight rain. Clear.6 mph83%29.89 "HgN/A
12:00 am68 °FLight rain. Clear.2 mph69%29.89 "HgN/A
11:30 pm
Thu, Sep 24
70 °FClear.3 mph64%29.89 "Hg10 mi
11:00 pm70 °FClear.6 mph69%29.89 "Hg10 mi
10:30 pm70 °FClear.10 mph64%29.89 "Hg10 mi
10:00 pm72 °FClear.12 mph61%29.86 "Hg10 mi
9:30 pm72 °FClear.10 mph61%29.86 "Hg10 mi
9:00 pm72 °FClear.8 mph61%29.86 "Hg10 mi
8:30 pm73 °FClear.6 mph53%29.86 "Hg10 mi
8:00 pm73 °FClear.6 mph57%29.86 "Hg10 mi
7:30 pm75 °FPassing clouds.6 mph54%29.86 "HgN/A
7:00 pm75 °FSunny.5 mph50%29.86 "Hg10 mi
6:00 pm79 °FSunny.1 mph45%29.86 "Hg10 mi
5:30 pm81 °FPassing clouds.3 mph39%29.83 "HgN/A
5:00 pm79 °FPassing clouds.5 mph45%29.83 "HgN/A
4:30 pm81 °FPassing clouds.7 mph42%29.83 "HgN/A
4:00 pm79 °FSunny.8 mph45%29.86 "Hg10 mi
3:30 pm79 °FPassing clouds.6 mph45%29.86 "HgN/A
3:00 pm79 °FSunny.8 mph48%29.86 "Hg10 mi
2:30 pm79 °FPassing clouds.5 mph48%29.86 "HgN/A
2:00 pm77 °FWarm.9 mph47%29.86 "HgN/A
1:30 pm77 °FPassing clouds.8 mph51%29.86 "HgN/A
1:00 pm75 °FPassing clouds.8 mph54%29.89 "HgN/A
12:30 pm75 °FPassing clouds.7 mph54%29.89 "HgN/A
12:00 pm73 °FPassing clouds.7 mph61%29.89 "HgN/A
11:30 am72 °FPassing clouds.9 mph65%29.89 "HgN/A
11:00 am70 °FPassing clouds.8 mph69%29.89 "HgN/A
10:30 am68 °FSunny.7 mph69%29.89 "Hg10 mi
10:00 am66 °FSunny.8 mph73%29.89 "Hg10 mi
9:30 am64 °FSunny.9 mph73%29.89 "Hg10 mi
9:00 am63 °FSunny.8 mph73%29.89 "Hg10 mi
8:30 am61 °FSunny.7 mph77%29.89 "Hg10 mi
8:00 am57 °FSunny.6 mph82%29.89 "Hg10 mi
7:30 am57 °FSunny.8 mph82%29.89 "Hg10 mi
7:00 am57 °FSunny.9 mph82%29.86 "Hg10 mi
6:30 am57 °FClear.9 mph82%29.89 "Hg10 mi
6:00 am57 °FClear.8 mph82%29.89 "Hg10 mi
5:30 am59 °FClear.10 mph77%29.89 "Hg10 mi
5:00 am59 °FClear.9 mph72%29.89 "Hg10 mi
4:30 am59 °FClear.10 mph72%29.89 "Hg10 mi
4:00 am59 °FClear.12 mph72%29.89 "Hg10 mi
3:30 am59 °FClear.12 mph72%29.89 "Hg10 mi
3:00 am61 °FClear.9 mph63%29.89 "Hg10 mi
2:30 am61 °FPassing clouds.7 mph59%29.89 "HgN/A
2:00 am61 °FClear.6 mph59%29.89 "Hg10 mi
1:30 am61 °FClear.7 mph55%29.89 "Hg10 mi
1:00 am61 °FClear.9 mph55%29.89 "Hg10 mi
Weather by CustomWeather, © 2020

See weather overview